FENGYUN 1C DEB, 32308

Orbit data source: Space-Track

FENGYUN 1C DEB, 32308 is space debris in SSO originally from a launch on Mon, 10 May 1999 UTC launched from the Taiyaun Space Center, China (TSC). Fengyun 1C debris stems from the Chinese weather satellite Fengyun-1C, which was intentionally destroyed by a Chinese anti-satellite missile in 2007. This event dramatically increased the amount of space debris, with thousands of trackable fragments posing hazards to satellites and human spaceflight. The Fengyun 1C debris cloud has become a focal point in discussions about space sustainability and the need for international regulations to prevent the creation of new debris.

Loading next visibility...
Identifier
32308, 1999-025CWZ
Orbit
SSO
Country
Flag of CNCN / PRC
Related business
Manufacturer
Unknown
Mission
Spacecraft
Bus & Motor
Unknown
Mass
Unknown
Launch date (UTC)
1999-05-10 (27 years ago)
Launch vehicle
Unknown
Launch site
Taiyaun Space Center, China (TSC)
Object type
Payload
Rocket body
Debris
Shape & HBR
Unknown shape, 0.1 m
Radar Cross Section
Small (<0.1 m²)

Expand to show TLE details & history
Last TLE update: 4 days ago

TLE from 4 days ago
0 FENGYUN 1C DEB
1 32308U 99025CWZ 26204.01064347  .00002126  00000-0  12366-2 0  9991
2 32308  97.7616 230.4781 0109047 136.1784 224.8105 14.06523590685354
Epoch: 2026-07-23T00:15Z
TLE epoch observation values (Epoch: 2026-07-23T00:15:19.595Z)
Latitude
-0.00001°
Longitude
-74.11131°
Altitude
930.736 km
Speed
7.358 km/s
True Right ascension
15h 21m 54s
True Declination
0° 00' 00"
Sunlit
Object was in daylight at epoch
Visualization orbit readout
Latitude
Unknown
Longitude
Unknown
Altitude
Unknown
Speed
Unknown
Apparent Right ascension
Unknown
Apparent Declination
Unknown
Sunlit
N/A
Visualization observer readout
Local Sidereal Time
00:01:31
Azimuth
Unknown
Elevation
Unknown
Doppler factor
Unknown
Orbital elements
Apogee altitude
947.447 km
Perigee altitude
789.404 km
Semi-major axis
7,246.563 km
Eccentricity
0.0109
Inclination
97.7616°
RAAN
230.4781°
Arg. of periapsis
136.1784°
True anomaly
223.93831°
Mean anomaly
224.8105°
Eccentric anomaly
224.37356°
Mean motion
3.5184 °/min
Orbital period
102.32 mins
BSTAR
0.0012366
Loading maneuver chart data...
Computing Atmospheric mass density...
Loading historical data...
Loading historical data...
Loading historical data...
Loading historical data...
Loading historical data...
Loading historical data...
Loading historical data...

Documentation

Showing up to 5 results
|